Hourly Data Report for September 16, 2017

All times are specified in Local Standard Time (LST). Add 1 hour to adjust for Daylight Saving Time where and when it is observed.

EAST POINT (AUT)
PRINCE EDWARD ISLAND

46°27'36.000" N
61°59'18.000" W
7.70 m
8300418
71412
WEP

Download Data

Hourly Data (September 2017)
Hourly Data Report for September 16, 2017
Temp Definition
°C
Dew Point Temp Definition
°C
Rel Hum Definition
%
Wind Dir Definition
10's deg

Wind Spd Definition
km/h
Visibility Definition
km
Stn Press Definition
kPa
Hmdx Definition


Wind Chill Definition


Weather Definition


TIME
00:00 16.1 12.8 81 17 11   101.96     LegendNANA
01:00 17.2 14.9 87 18 15   101.93     LegendNANA
02:00 17.1 14.2 83 18 17   101.90     LegendNANA
03:00 17.0 15.4 91 18 22   101.85     LegendNANA
04:00 16.6 15.2 91 18 17   101.83     LegendNANA
05:00 16.7 15.2 91 20 19   101.86     LegendNANA
06:00 16.8 15.5 92 19 16   101.84     LegendNANA
07:00 17.2 16.0 93 19 23   101.81     LegendNANA
08:00 18.0 16.7 92 23 18   101.88     LegendNANA
09:00 19.0 17.3 90 24 13   101.88     LegendNANA
10:00 19.5 16.7 84 23 15   101.83     LegendNANA
11:00 21.3 16.8 75 24 9   101.75 26   LegendNANA
12:00 21.5 17.4 77 21 13   101.74 27   LegendNANA
13:00 21.2 17.0 77 20 21   101.69 26   LegendNANA
14:00 21.4 16.5 74 34 7   101.73 26   LegendNANA
15:00 19.8 16.4 81 34 10   101.76     LegendNANA
16:00 16.5 13.6 83 35 34   101.84     LegendNANA
17:00 16.2 13.2 82 1 31   101.85     LegendNANA
18:00 16.0 13.1 83 1 25   101.89     LegendNANA
19:00 16.0 13.0 82 1 23   101.96     LegendNANA
20:00 16.0 13.0 83 2 23   101.98     LegendNANA
21:00 15.3 12.9 86 1 21   102.06     LegendNANA
22:00 15.5 12.6 83 2 23   102.05     LegendNANA
23:00 15.5 12.4 82 2 19   102.08     LegendNANA

Notes on Data Quality.

Legend

  • E = Estimated
  • M = Missing
  • NA = Not Available
  • ‡ = Partner data that is not subject to review by the National Climate Archives
Date modified: